FW1981 Weather Reports


Display with metric or nautical units.
time (UTC)temp
F
wind
direction
speed
MPH
gust
MPH
rain 1hr
in
rain 24hr
in
rain mn
in
humidity
%
barometer
mb
20260510082010 45 203 3.0 10.0 0.00 0.01 0.01 89 1023.1
20260510081518 45 136 5.0 10.0 0.00 0.01 0.01 89 1023.1
20260510081009 45 141 4.0 12.0 0.00 0.01 0.01 89 1023.1
20260510080529 45 197 3.0 12.0 0.00 0.01 0.01 89 1023.0
20260510080030 45 159 5.0 12.0 0.00 0.01 0.01 90 1022.9
20260510075509 45 223 4.0 12.0 0.00 0.01 0.01 90 1023.0
20260510075017 45 179 4.0 10.0 0.00 0.01 0.01 90 1022.8
20260510074509 45 191 4.0 8.0 0.00 0.01 0.01 90 1022.8
20260510074028 44 151 3.0 9.0 0.00 0.01 0.01 90 1023.0
20260510073509 44 164 3.0 7.0 0.00 0.01 0.01 90 1023.0
20260510073028 44 204 3.0 7.0 0.00 0.01 0.01 90 1023.0
20260510072514 44 163 2.0 7.0 0.00 0.01 0.01 90 1023.0
20260510072017 44 186 3.0 7.0 0.00 0.01 0.01 90 1023.1
20260510071521 44 149 2.0 6.0 0.00 0.01 0.01 91 1023.1
20260510071017 44 146 2.0 7.0 0.00 0.01 0.01 91 1023.1
20260510070509 44 181 3.0 7.0 0.00 0.01 0.01 91 1023.1
20260510070017 44 227 3.0 9.0 0.00 0.01 0.01 91 1023.1
20260510065509 44 144 4.0 9.0 0.00 0.01 0.01 91 1023.0
20260510065017 44 160 2.0 9.0 0.00 0.01 0.01 91 1023.0
20260510064509 45 210 5.0 9.0 0.00 0.01 0.01 91 1022.8
20260510064018 44 160 5.0 8.0 0.00 0.01 0.01 92 1022.8
20260510063509 44 139 3.0 9.0 0.00 0.01 0.01 92 1022.9
20260510063017 44 183 4.0 9.0 0.00 0.01 0.01 92 1022.9
20260510062520 44 200 3.0 9.0 0.00 0.01 0.01 92 1022.8
20260510062017 44 145 3.0 8.0 0.00 0.01 0.01 92 1022.6
20260510061510 44 235 3.0 8.0 0.00 0.01 0.01 92 1022.7
20260510061018 44 116 4.0 8.0 0.00 0.01 0.01 92 1022.8
20260510060509 44 128 4.0 8.0 0.00 0.01 0.01 92 1022.9
20260510060016 44 165 3.0 7.0 0.00 0.01 0.01 92 1022.9
20260510055521 44 155 4.0 8.0 0.00 0.01 0.01 92 1023.0
20260510055017 44 216 2.0 8.0 0.00 0.01 0.01 92 1023.1
20260510054520 44 202 3.0 8.0 0.00 0.01 0.01 92 1023.1
20260510054017 44 207 2.0 8.0 0.00 0.01 0.01 92 1023.1
20260510053510 44 225 3.0 8.0 0.01 0.01 0.01 92 1023.1
20260510053018 44 149 3.0 8.0 0.01 0.01 0.01 92 1023.0
20260510052509 44 210 2.0 8.0 0.01 0.01 0.01 92 1023.0
20260510052017 44 115 3.0 8.0 0.01 0.01 0.01 92 1023.1
20260510051522 44 181 3.0 6.0 0.01 0.01 0.01 92 1023.1
20260510051017 44 190 2.0 6.0 0.01 0.01 0.01 92 1023.2
20260510050510 44 216 2.0 6.0 0.01 0.01 0.01 92 1023.1
20260510050017 44 200 2.0 6.0 0.01 0.01 0.01 92 1023.0
20260510045526 44 178 3.0 6.0 0.01 0.01 0.01 92 1022.9
20260510045022 44 166 2.0 6.0 0.01 0.01 0.01 92 1023.0
20260510044509 44 214 2.0 6.0 0.01 0.01 0.01 92 1023.0
20260510044017 44 158 2.0 6.0 0.01 0.01 0.01 91 1023.2
20260510043509 44 203 2.0 5.0 0.00 0.00 0.00 91 1023.2
20260510043022 44 171 1.0 4.0 0.00 0.00 0.00 91 1023.2
20260510042510 44 154 1.0 4.0 0.00 0.00 0.00 92 1023.2
20260510042017 44 271 2.0 6.0 0.00 0.00 0.00 91 1023.2
20260510041510 44 201 2.0 6.0 0.00 0.00 0.00 91 1023.2
20260510041022 44 200 1.0 3.0 0.00 0.00 0.00 91 1023.2
20260510040510 44 233 1.0 3.0 0.00 0.00 0.00 91 1023.2
20260510040017 44 139 0.0 2.0 0.00 0.00 0.00 91 1023.3
20260510035510 44 164 1.0 2.0 0.00 0.00 0.00 91 1023.3
20260510035018 44 238 0.0 2.0 0.00 0.00 0.00 91 1023.3
20260510034520 44 260 0.0 3.0 0.00 0.00 0.00 91 1023.4
20260510034017 44 155 0.0 3.0 0.00 0.00 0.00 90 1023.4
20260510033510 44 242 1.0 4.0 0.00 0.00 0.00 90 1023.4
20260510033017 44 239 1.0 4.0 0.00 0.00 0.00 90 1023.3
20260510032509 44 229 1.0 5.0 0.00 0.00 0.00 90 1023.3
20260510032028 44 237 1.0 5.0 0.00 0.00 0.00 90 1023.3
20260510031510 44 238 1.0 5.0 0.00 0.00 0.00 90 1023.3
20260510031022 44 260 1.0 5.0 0.00 0.00 0.00 89 1023.1
20260510030521 44 219 2.0 5.0 0.00 0.00 0.00 89 1023.2
20260510030017 44 241 1.0 4.0 0.00 0.00 0.00 89 1023.1
20260510025510 44 236 1.0 4.0 0.00 0.00 0.00 89 1023.0
20260510025028 44 232 1.0 3.0 0.00 0.00 0.00 89 1023.0
20260510024510 44 226 1.0 4.0 0.00 0.00 0.00 89 1023.0
20260510024028 44 250 1.0 7.0 0.00 0.00 0.00 89 1023.0
20260510023510 44 225 2.0 7.0 0.00 0.00 0.00 88 1023.1
20260510023028 43 233 2.0 5.0 0.00 0.00 0.00 88 1023.2
20260510022510 44 264 1.0 7.0 0.00 0.00 0.00 88 1023.2
20260510022028 44 255 2.0 8.0 0.00 0.00 0.00 88 1023.1
20260510021511 44 257 3.0 8.0 0.00 0.00 0.00 88 1023.2
20260510021017 44 220 3.0 7.0 0.00 0.00 0.00 87 1023.1
20260510020510 44 229 2.0 7.0 0.00 0.00 0.00 87 1023.1
20260510020018 44 243 1.0 6.0 0.00 0.00 0.00 87 1023.0
20260510015511 44 210 1.0 5.0 0.00 0.00 0.00 87 1023.0
20260510014017 44 229 1.0 3.0 0.00 0.00 0.00 87 1023.0
20260510013521 44 216 1.0 3.0 0.00 0.00 0.00 87 1023.0
20260510013017 44 204 1.0 5.0 0.00 0.00 0.00 86 1022.8
20260510012510 44 231 1.0 5.0 0.00 0.00 0.00 86 1022.8
20260510012030 44 226 1.0 5.0 0.00 0.00 0.00 86 1023.0
20260510011510 44 245 2.0 5.0 0.00 0.00 0.00 85 1023.0
20260510005518 44 217 1.0 5.0 0.00 0.00 0.00 84 1023.0
20260510005010 44 141 2.0 5.0 0.00 0.00 0.00 83 1023.0
20260510004517 44 239 1.0 5.0 0.00 0.00 0.00 83 1023.0
20260510004010 44 153 2.0 5.0 0.00 0.00 0.00 83 1023.0
20260510002010 44 229 0.0 4.0 0.00 0.00 0.00 81 1022.7
20260510001529 44 282 2.0 6.0 0.00 0.00 0.00 81 1022.6
20260510001010 44 227 1.0 6.0 0.00 0.00 0.00 81 1022.6
20260509235510 44 283 0.0 4.0 0.00 0.00 0.00 79 1022.4
20260509235017 44 237 1.0 4.0 0.00 0.00 0.00 79 1022.4
20260509234510 45 258 1.0 6.0 0.00 0.00 0.00 79 1022.3
20260509234017 45 242 3.0 6.0 0.00 0.00 0.00 78 1022.3
20260509233510 45 264 1.0 5.0 0.00 0.00 0.00 78 1022.1
20260509233018 45 236 1.0 5.0 0.00 0.00 0.00 77 1022.1
20260509232510 45 217 1.0 5.0 0.00 0.00 0.00 77 1022.1
20260509232018 45 230 1.0 6.0 0.00 0.00 0.00 76 1022.0
20260509231511 45 248 1.0 6.0 0.00 0.00 0.00 76 1022.0
20260509231017 45 266 1.0 5.0 0.00 0.00 0.00 76 1021.9
20260509230511 45 243 1.0 8.0 0.00 0.00 0.00 75 1021.8
20260509230018 45 253 1.0 8.0 0.00 0.00 0.00 75 1021.8
20260509225510 46 276 1.0 5.0 0.00 0.00 0.00 74 1021.7
20260509225018 46 248 1.0 9.0 0.00 0.00 0.00 74 1021.6
20260509224510 46 271 2.0 9.0 0.00 0.00 0.00 73 1021.6
20260509224018 47 264 1.0 9.0 0.00 0.00 0.00 72 1021.5
20260509223510 47 349 1.0 7.0 0.00 0.00 0.00 72 1021.3
20260509223017 48 195 2.0 9.0 0.00 0.00 0.00 70 1021.2
20260509222515 48 233 2.0 9.0 0.00 0.00 0.00 70 1021.1
20260509222017 48 245 3.0 10.0 0.00 0.00 0.00 69 1020.9
20260509221511 48 151 3.0 10.0 0.00 0.00 0.00 69 1020.8
20260509221018 49 345 4.0 10.0 0.00 0.00 0.00 68 1020.7
20260509220533 49 221 3.0 8.0 0.00 0.00 0.00 70 1020.8
20260509220017 48 238 2.0 9.0 0.00 0.00 0.00 70 1020.7
20260509215510 48 122 2.0 9.0 0.00 0.00 0.00 70 1020.7
20260509215019 49 221 2.0 8.0 0.00 0.00 0.00 70 1020.7
20260509214510 49 261 2.0 7.0 0.00 0.00 0.00 68 1020.5
20260509214017 49 238 2.0 9.0 0.00 0.00 0.00 68 1020.5
20260509213510 49 196 3.0 9.0 0.00 0.00 0.00 69 1020.3
20260509213034 48 249 3.0 8.0 0.00 0.00 0.00 70 1020.3
20260509212510 48 281 3.0 10.0 0.00 0.00 0.00 71 1020.3
20260509212018 48 279 4.0 10.0 0.00 0.00 0.00 70 1020.3
20260509211521 49 198 3.0 12.0 0.00 0.00 0.00 70 1020.2
20260509211018 49 255 3.0 12.0 0.00 0.00 0.00 71 1020.3
20260509210510 48 262 3.0 10.0 0.00 0.00 0.00 71 1020.1
20260509210029 48 306 4.0 10.0 0.00 0.00 0.00 71 1020.1
20260509205522 48 243 3.0 10.0 0.00 0.00 0.00 72 1020.1
20260509205017 48 226 4.0 10.0 0.00 0.00 0.00 71 1020.1
20260509204511 48 274 4.0 10.0 0.00 0.00 0.00 71 1020.1
20260509204018 48 269 3.0 10.0 0.00 0.00 0.00 72 1020.1
20260509203512 48 219 2.0 10.0 0.00 0.00 0.00 73 1020.1
20260509203018 48 243 3.0 11.0 0.00 0.00 0.00 72 1020.0
20260509202510 48 225 4.0 11.0 0.00 0.00 0.00 72 1019.9
20260509202018 48 197 4.0 11.0 0.00 0.00 0.00 72 1019.9
20260509201522 48 240 4.0 12.0 0.00 0.00 0.00 72 1019.9
20260509201018 48 228 3.0 11.0 0.00 0.00 0.00 72 1019.7
20260509200510 49 117 5.0 11.0 0.00 0.00 0.00 72 1019.7
20260509200018 49 245 6.0 11.0 0.00 0.00 0.00 71 1019.4
20260509195510 50 227 4.0 11.0 0.00 0.00 0.00 71 1019.4
20260509195018 50 147 4.0 10.0 0.00 0.00 0.00 71 1019.4
20260509194521 51 248 3.0 9.0 0.00 0.00 0.00 69 1019.2
20260509194018 51 113 2.0 12.0 0.00 0.00 0.00 70 1019.2
20260509193522 51 210 5.0 12.0 0.00 0.00 0.00 68 1019.4
20260509193018 52 247 1.0 10.0 0.00 0.00 0.00 69 1019.4
20260509192510 51 282 3.0 12.0 0.00 0.00 0.00 70 1019.4
20260509192021 51 269 2.0 12.0 0.00 0.00 0.00 70 1019.2
20260509191519 52 277 3.0 9.0 0.00 0.00 0.00 70 1019.2
20260509191011 51 145 1.0 11.0 0.00 0.00 0.00 70 1019.1
20260509190519 51 193 3.0 13.0 0.00 0.00 0.00 71 1019.2
20260509190021 50 62 3.0 13.0 0.00 0.00 0.00 71 1019.2
20260509185511 50 266 5.0 12.0 0.00 0.00 0.00 72 1019.2
20260509185020 50 165 4.0 12.0 0.00 0.00 0.00 72 1019.1
20260509184519 50 237 5.0 12.0 0.00 0.00 0.00 71 1019.0
20260509184015 51 217 5.0 12.0 0.00 0.00 0.00 70 1019.1
20260509183520 51 250 5.0 13.0 0.00 0.00 0.00 71 1019.0
20260509183025 52 240 6.0 13.0 0.00 0.00 0.00 70 1018.9
20260509182524 52 235 7.0 13.0 0.00 0.00 0.00 69 1018.8
20260509182020 52 250 5.0 13.0 0.00 0.00 0.00 68 1018.8
20260509181511 52 260 6.0 11.0 0.00 0.00 0.00 67 1018.8
20260509181018 54 236 4.0 10.0 0.00 0.00 0.00 66 1018.8
20260509180512 54 224 4.0 10.0 0.00 0.00 0.00 66 1018.7
20260509180020 54 197 4.0 10.0 0.00 0.00 0.00 65 1018.6
20260509175519 54 226 4.0 10.0 0.00 0.00 0.00 66 1018.6
20260509175012 54 150 4.0 13.0 0.00 0.00 0.00 65 1018.6
20260509174531 54 226 4.0 13.0 0.00 0.00 0.00 64 1018.6
20260509174018 54 245 4.0 12.0 0.00 0.00 0.00 63 1018.6
20260509173512 54 307 7.0 12.0 0.00 0.00 0.00 60 1018.6
20260509173020 55 255 4.0 13.0 0.00 0.00 0.00 61 1018.4
20260509172516 55 202 6.0 13.0 0.00 0.00 0.00 60 1018.3
20260509172019 55 251 3.0 10.0 0.00 0.00 0.00 62 1018.5
20260509171519 54 210 4.0 11.0 0.00 0.00 0.00 63 1018.4
20260509171012 54 251 3.0 12.0 0.00 0.00 0.00 63 1018.3
20260509170519 54 214 4.0 12.0 0.00 0.00 0.00 63 1018.3
20260509170012 54 265 5.0 12.0 0.00 0.00 0.00 63 1018.3
20260509165519 55 238 4.0 9.0 0.00 0.00 0.00 65 1018.2
20260509165031 55 327 2.0 11.0 0.00 0.00 0.00 65 1018.2
20260509164523 54 264 3.0 12.0 0.00 0.00 0.00 65 1018.1
20260509164018 54 292 4.0 10.0 0.00 0.00 0.00 65 1018.1
20260509163512 55 252 4.0 10.0 0.00 0.00 0.00 65 1018.2
20260509163030 54 115 3.0 11.0 0.00 0.00 0.00 67 1018.1
20260509162518 54 250 3.0 11.0 0.00 0.00 0.00 67 1018.2
20260509162011 54 129 3.0 8.0 0.00 0.00 0.00 68 1018.2
20260509161529 53 135 4.0 11.0 0.00 0.00 0.00 67 1018.3
20260509161011 53 251 3.0 11.0 0.00 0.00 0.00 68 1018.3
20260509160519 53 240 4.0 12.0 0.00 0.00 0.00 67 1018.3
20260509160011 53 283 4.0 12.0 0.00 0.00 0.00 68 1018.0
20260509155518 53 276 5.0 10.0 0.00 0.00 0.00 67 1018.0
20260509155011 53 236 3.0 10.0 0.00 0.00 0.00 69 1018.1
20260509154518 52 260 3.0 11.0 0.00 0.00 0.00 70 1018.1
20260509154011 52 264 4.0 11.0 0.00 0.00 0.00 68 1017.9
20260509153518 53 295 5.0 11.0 0.00 0.00 0.00 66 1018.0
20260509153011 53 281 3.0 9.0 0.00 0.00 0.00 69 1017.9
20260509152518 53 307 5.0 9.0 0.00 0.00 0.00 67 1017.9
20260509152011 54 289 3.0 9.0 0.00 0.00 0.00 70 1018.0
20260509151018 52 272 3.0 11.0 0.00 0.00 0.00 71 1017.9
20260509150511 52 205 5.0 11.0 0.00 0.00 0.00 70 1017.8
20260509150019 52 223 5.0 11.0 0.00 0.00 0.00 70 1017.8
20260509145522 51 203 6.0 11.0 0.00 0.00 0.00 69 1017.6
20260509145021 52 226 5.0 12.0 0.00 0.00 0.00 70 1017.6
20260509144518 52 222 4.0 12.0 0.00 0.00 0.00 70 1017.8
20260509144023 52 283 2.0 10.0 0.00 0.00 0.00 70 1017.6
20260509143522 52 154 3.0 12.0 0.00 0.00 0.00 70 1017.7
20260509143020 52 295 3.0 12.0 0.00 0.00 0.00 68 1017.6
20260509142511 52 276 3.0 10.0 0.00 0.00 0.00 70 1017.5
20260509141516 52 291 3.0 11.0 0.00 0.00 0.00 70 1017.4
20260509140511 52 243 3.0 9.0 0.00 0.00 0.00 68 1017.3
20260509140019 52 254 3.0 9.0 0.00 0.00 0.00 68 1017.3
20260509135511 52 217 5.0 9.0 0.00 0.00 0.00 66 1017.2
20260509135019 53 258 3.0 8.0 0.00 0.00 0.00 68 1017.1
20260509134512 52 245 3.0 8.0 0.00 0.00 0.00 68 1016.9
20260509134030 53 258 3.0 9.0 0.00 0.00 0.00 67 1016.9
20260509133522 53 255 2.0 9.0 0.00 0.00 0.00 68 1016.9
20260509133023 53 279 2.0 9.0 0.00 0.00 0.00 71 1016.8
20260509132511 53 273 3.0 9.0 0.00 0.00 0.00 71 1016.7
20260509132019 53 188 4.0 6.0 0.00 0.00 0.00 70 1016.8
20260509131512 52 109 3.0 6.0 0.00 0.00 0.00 70 1016.7
20260509131023 52 244 3.0 7.0 0.00 0.00 0.00 70 1016.6
20260509130511 52 235 3.0 9.0 0.00 0.00 0.00 71 1016.6
20260509130018 51 131 3.0 9.0 0.00 0.00 0.00 71 1016.5
20260509125512 52 243 4.0 7.0 0.00 0.00 0.00 70 1016.5
20260509125018 52 162 1.0 6.0 0.00 0.00 0.00 71 1016.4
20260509124511 52 258 3.0 6.0 0.00 0.00 0.00 70 1016.3
20260509124018 52 206 2.0 6.0 0.00 0.00 0.00 71 1016.3
20260509123520 52 214 0.0 7.0 0.00 0.00 0.00 74 1016.3
20260509123012 51 290 2.0 7.0 0.00 0.00 0.00 72 1016.3
20260509122518 51 295 1.0 6.0 0.00 0.00 0.00 72 1016.4
20260509122011 51 255 1.0 6.0 0.00 0.00 0.00 73 1016.4
20260509121519 51 226 2.0 5.0 0.00 0.00 0.00 73 1016.2
20260509121011 50 214 1.0 5.0 0.00 0.00 0.00 74 1016.4
20260509120519 50 256 1.0 4.0 0.00 0.00 0.00 74 1016.3
20260509120012 50 266 1.0 6.0 0.00 0.00 0.00 75 1016.3
20260509115519 50 248 2.0 6.0 0.00 0.00 0.00 74 1016.4
20260509115012 50 232 2.0 6.0 0.00 0.00 0.00 75 1016.4
20260509114519 49 214 3.0 6.0 0.00 0.00 0.00 74 1016.3
20260509114011 49 219 1.0 5.0 0.00 0.00 0.00 75 1016.2
20260509113518 49 210 1.0 5.0 0.00 0.00 0.00 74 1016.1
20260509113022 49 244 1.0 5.0 0.00 0.00 0.00 76 1016.0
20260509112519 48 171 1.0 5.0 0.00 0.00 0.00 77 1016.0
20260509112011 48 212 2.0 5.0 0.00 0.00 0.00 77 1015.8
20260509111519 48 278 1.0 4.0 0.00 0.00 0.00 78 1015.8
20260509111011 48 220 2.0 4.0 0.00 0.00 0.00 77 1015.7
20260509110518 48 167 1.0 3.0 0.00 0.00 0.00 80 1015.5
20260509110012 48 235 0.0 2.0 0.00 0.00 0.00 80 1015.4
20260509105535 47 268 1.0 2.0 0.00 0.00 0.00 79 1015.4
20260509105011 47 279 0.0 4.0 0.00 0.00 0.00 81 1015.5
20260509104519 45 250 1.0 4.0 0.00 0.00 0.00 82 1015.4
20260509104011 45 266 1.0 3.0 0.00 0.00 0.00 81 1015.4
20260509103519 45 229 0.0 2.0 0.00 0.00 0.00 83 1015.2
20260509103018 44 211 0.0 2.0 0.00 0.00 0.00 84 1015.0
20260509102527 44 220 0.0 2.0 0.00 0.00 0.00 85 1014.9
20260509102019 43 252 0.0 1.0 0.00 0.00 0.00 85 1014.9
20260509101518 42 254 0.0 1.0 0.00 0.00 0.00 86 1014.7
20260509101012 42 251 0.0 1.0 0.00 0.00 0.00 86 1014.6
20260509100518 41 292 0.0 2.0 0.00 0.00 0.00 87 1014.4
20260509100011 41 295 0.0 3.0 0.00 0.00 0.00 87 1014.2
20260509095519 40 238 1.0 3.0 0.00 0.00 0.00 87 1014.1
20260509095022 40 241 0.0 1.0 0.00 0.00 0.00 87 1013.9
20260509094529 40 250 0.0 3.0 0.00 0.00 0.00 87 1013.7
20260509094011 40 267 0.0 3.0 0.00 0.00 0.00 88 1013.7
20260509093519 40 285 1.0 3.0 0.00 0.00 0.00 88 1013.7
20260509093011 40 294 1.0 3.0 0.00 0.00 0.00 88 1013.5
20260509092519 39 281 1.0 4.0 0.00 0.00 0.00 89 1013.5
20260509092018 39 293 2.0 4.0 0.00 0.00 0.00 90 1013.3
20260509091522 39 316 3.0 4.0 0.00 0.00 0.00 91 1013.2
20260509091020 38 295 1.0 4.0 0.00 0.00 0.00 91 1013.2
20260509090518 38 290 1.0 3.0 0.00 0.00 0.00 92 1013.1
20260509090011 37 300 1.0 2.0 0.00 0.00 0.00 92 1013.1
20260509085519 37 299 1.0 2.0 0.00 0.00 0.00 92 1013.1
20260509085016 37 279 1.0 2.0 0.00 0.00 0.00 92 1013.0
20260509084518 36 301 0.0 1.0 0.00 0.00 0.00 92 1013.1
20260509084012 36 274 0.0 1.0 0.00 0.00 0.00 91 1012.9
20260509083519 36 274 0.0 1.0 0.00 0.00 0.00 91 1013.0
20260509083013 36 278 0.0 1.0 0.00 0.00 0.00 91 1013.0
20260509082519 37 279 0.0 1.0 0.00 0.00 0.00 91 1012.9